Weather History for KEEN - April, 2013

Change the Weather History Date:

Tuesday, April 2, 2013

  Actual Average Record
Temperature  
Mean Temperature 30 °F -  
Max Temperature 35 °F 52 °F 76 °F (1967)
Min Temperature 24 °F 29 °F 13 °F (1964)
Degree Days  
Heating Degree Days 36    
Moisture  
Dew Point 10 °F    
Average Humidity 41    
Maximum Humidity 55    
Minimum Humidity 30    
Precipitation  
Precipitation 0.00 in - - ()
Sea Level Pressure  
Sea Level Pressure 29.86 in    
Wind  
Wind Speed 10 mph (West)    
Max Wind Speed 22 mph    
Max Gust Speed 36 mph    
Visibility 10 miles    
Events      
Averages and records for this station are not official NWS values.
T = Trace of Precipitation, MM = Missing Value Source: NWS Daily Summary

Daily Weather History Graph

Daily Weather History Graph

Search for Another Location

Airport or City:

Trip Planner

Search our weather history database for the weather conditions in past years. The results will help you decide how hot, cold, wet, or windy it might be!

Date:

Astronomy

Apr. 02, 2013 Rise Set
Actual Time 6:29 AM EDT 7:16 PM EDT
Civil Twilight 6:00 AM EDT 7:45 PM EDT
Nautical Twilight 5:26 AM EDT 8:19 PM EDT
Astronomical Twilight 4:51 AM EDT 8:55 PM EDT
Moon 1:24 AM EDT (4/2) 11:10 AM EDT (4/2)
Length of Visible Light 13h 45m
Length of Day
12h 47m
Waning Gibbous, 56% of the Moon is Illuminated
Apr 2
Waning Gibbous
Apr 3
Last Quarter
Apr 10
New
Apr 18
First Quarter
Apr 25
Full

Hourly Weather History & Observations

Time (EDT) Temp. Windchill Dew Point Humidity Pressure Visibility Wind Dir Wind Speed Gust Speed Precip Events Conditions
12:15 AM 30.2 °F 21.3 °F 12.2 °F 47% 29.81 in 10.0 mi WNW 10.4 mph 23.0 mph N/A   Clear
12:55 AM 30.2 °F 22.6 °F 10.4 °F 44% 29.82 in 10.0 mi West 8.1 mph - N/A   Clear
1:15 AM 30.2 °F 21.9 °F 10.4 °F 44% 29.82 in 10.0 mi West 9.2 mph - N/A   Clear
1:35 AM 30.2 °F 24.3 °F 8.6 °F 40% 29.83 in 10.0 mi WNW 5.8 mph - N/A   Clear
1:55 AM 30.2 °F 23.4 °F 8.6 °F 40% 29.83 in 10.0 mi West 6.9 mph - N/A   Clear
2:15 AM 30.2 °F 24.3 °F 8.6 °F 40% 29.82 in 10.0 mi West 5.8 mph - N/A   Clear
2:35 AM 28.4 °F 22.2 °F 8.6 °F 43% 29.82 in 10.0 mi West 5.8 mph - N/A   Clear
2:55 AM 28.4 °F 23.3 °F 10.4 °F 47% 29.81 in 10.0 mi West 4.6 mph - N/A   Clear
3:15 AM 28.4 °F 23.3 °F 10.4 °F 47% 29.82 in 10.0 mi West 4.6 mph 16.1 mph N/A   Clear
3:35 AM 28.4 °F 23.3 °F 8.6 °F 43% 29.81 in 10.0 mi SW 4.6 mph - N/A   Clear
3:55 AM 28.4 °F 24.6 °F 8.6 °F 43% 29.81 in 10.0 mi WSW 3.5 mph - N/A   Clear
4:15 AM 28.4 °F 24.6 °F 8.6 °F 43% 29.82 in 10.0 mi WSW 3.5 mph - N/A   Clear
4:35 AM 28.4 °F 24.6 °F 8.6 °F 43% 29.82 in 10.0 mi West 3.5 mph - N/A   Clear
4:55 AM 26.6 °F 22.6 °F 8.6 °F 47% 29.82 in 10.0 mi WSW 3.5 mph - N/A   Clear
5:15 AM 26.6 °F 22.6 °F 8.6 °F 47% 29.83 in 10.0 mi WSW 3.5 mph - N/A   Clear
5:35 AM 26.6 °F 22.6 °F 8.6 °F 47% 29.83 in 10.0 mi WSW 3.5 mph - N/A   Clear
5:55 AM 26.6 °F 22.6 °F 10.4 °F 51% 29.83 in 10.0 mi WSW 3.5 mph - N/A   Clear
6:15 AM 24.8 °F 20.5 °F 10.4 °F 54% 29.84 in 10.0 mi SW 3.5 mph - N/A   Clear
6:35 AM 24.8 °F 20.5 °F 10.4 °F 54% 29.84 in 10.0 mi SW 3.5 mph - N/A   Clear
6:55 AM 26.6 °F 22.6 °F 10.4 °F 51% 29.85 in 10.0 mi WSW 3.5 mph - N/A   Clear
7:15 AM 26.6 °F 20.0 °F 10.4 °F 51% 29.85 in 10.0 mi WSW 5.8 mph - N/A   Clear
7:35 AM 26.6 °F 20.0 °F 12.2 °F 55% 29.86 in 10.0 mi WSW 5.8 mph - N/A   Clear
7:55 AM 28.4 °F 20.4 °F 10.4 °F 47% 29.86 in 10.0 mi WSW 8.1 mph - N/A   Clear
8:15 AM 28.4 °F 19.1 °F 10.4 °F 47% 29.86 in 10.0 mi West 10.4 mph 16.1 mph N/A   Clear
8:35 AM 30.2 °F 18.1 °F 8.6 °F 40% 29.86 in 10.0 mi West 18.4 mph 26.5 mph N/A   Clear
8:55 AM 30.2 °F 22.6 °F 8.6 °F 40% 29.87 in 10.0 mi West 8.1 mph 21.9 mph N/A   Partly Cloudy
9:15 AM 30.2 °F 18.5 °F 8.6 °F 40% 29.87 in 10.0 mi WSW 17.3 mph 25.3 mph N/A   Mostly Cloudy
9:35 AM 30.2 °F 17.8 °F 8.6 °F 40% 29.86 in 10.0 mi West 19.6 mph 24.2 mph N/A   Mostly Cloudy
9:55 AM 30.2 °F 20.2 °F 8.6 °F 40% 29.87 in 10.0 mi West 12.7 mph 23.0 mph N/A   Scattered Clouds
10:35 AM 30.2 °F 18.1 °F 8.6 °F 40% 29.87 in 10.0 mi West 18.4 mph 25.3 mph N/A   Mostly Cloudy
10:55 AM 30.2 °F 19.8 °F 10.4 °F 44% 29.87 in 10.0 mi West 13.8 mph 24.2 mph N/A   Overcast
11:15 AM 32.0 °F 23.6 °F 10.4 °F 41% 29.86 in 10.0 mi West 10.4 mph 21.9 mph N/A   Mostly Cloudy
11:35 AM 30.2 °F 19.3 °F 10.4 °F 44% 29.87 in 10.0 mi WSW 15.0 mph 25.3 mph N/A   Overcast
11:55 AM 33.8 °F 23.5 °F 12.2 °F 41% 29.86 in 10.0 mi West 16.1 mph 27.6 mph N/A   Mostly Cloudy
12:15 PM 32.0 °F 22.5 °F 10.4 °F 41% 29.85 in 10.0 mi West 12.7 mph 25.3 mph N/A   Mostly Cloudy
12:35 PM 32.0 °F 21.2 °F 8.6 °F 38% 29.85 in 10.0 mi West 16.1 mph 26.5 mph N/A   Overcast
12:55 PM 33.8 °F 23.5 °F 8.6 °F 35% 29.85 in 10.0 mi West 16.1 mph 25.3 mph N/A   Overcast
1:15 PM 33.8 °F 24.8 °F 8.6 °F 35% 29.84 in 10.0 mi West 12.7 mph 29.9 mph N/A   Overcast
1:35 PM 33.8 °F 22.5 °F 8.6 °F 35% 29.84 in 10.0 mi West 19.6 mph 29.9 mph N/A   Overcast
1:55 PM 35.6 °F 25.5 °F 8.6 °F 33% 29.84 in 10.0 mi West 17.3 mph 27.6 mph N/A   Mostly Cloudy
2:15 PM 35.6 °F 26.2 °F 8.6 °F 33% 29.83 in 10.0 mi WNW 15.0 mph 25.3 mph N/A   Mostly Cloudy
2:35 PM 33.8 °F 22.8 °F 8.6 °F 35% 29.84 in 10.0 mi West 18.4 mph 32.2 mph N/A   Mostly Cloudy
2:55 PM 35.6 °F 25.9 °F 10.4 °F 35% 29.83 in 10.0 mi West 16.1 mph 25.3 mph N/A   Mostly Cloudy
3:15 PM 33.8 °F 21.9 °F 8.6 °F 35% 29.83 in 10.0 mi WNW 21.9 mph 35.7 mph N/A   Mostly Cloudy
3:35 PM 33.8 °F 24.3 °F 10.4 °F 38% 29.84 in 10.0 mi WSW 13.8 mph 33.4 mph N/A   Mostly Cloudy
3:55 PM 33.8 °F 23.2 °F 8.6 °F 35% 29.84 in 10.0 mi WNW 17.3 mph 24.2 mph N/A   Overcast
4:15 PM 33.8 °F 22.2 °F 6.8 °F 32% 29.84 in 10.0 mi West 20.7 mph 31.1 mph N/A   Overcast
4:35 PM 35.6 °F 24.8 °F 6.8 °F 30% 29.84 in 10.0 mi WSW 19.6 mph 31.1 mph N/A   Overcast
4:55 PM 33.8 °F 25.8 °F 8.6 °F 35% 29.85 in 10.0 mi West 10.4 mph 19.6 mph N/A   Overcast
5:15 PM 33.8 °F 24.8 °F 8.6 °F 35% 29.86 in 10.0 mi West 12.7 mph 28.8 mph N/A   Mostly Cloudy
5:35 PM 33.8 °F 24.3 °F 8.6 °F 35% 29.86 in 10.0 mi NW 13.8 mph 23.0 mph N/A   Scattered Clouds
5:55 PM 33.8 °F 26.4 °F 8.6 °F 35% 29.87 in 10.0 mi West 9.2 mph 18.4 mph N/A   Mostly Cloudy
6:15 PM 33.8 °F 24.3 °F 8.6 °F 35% 29.88 in 10.0 mi WNW 13.8 mph 25.3 mph N/A   Mostly Cloudy
6:35 PM 33.8 °F 24.3 °F 8.6 °F 35% 29.88 in 10.0 mi West 13.8 mph 24.2 mph N/A   Mostly Cloudy
6:55 PM 33.8 °F 24.3 °F 6.8 °F 32% 29.89 in 10.0 mi West 13.8 mph 24.2 mph N/A   Mostly Cloudy
7:15 PM 32.0 °F 23.0 °F 8.6 °F 38% 29.89 in 10.0 mi WSW 11.5 mph 26.5 mph N/A   Partly Cloudy
7:35 PM 32.0 °F 21.6 °F 8.6 °F 38% 29.90 in 10.0 mi West 15.0 mph 21.9 mph N/A   Partly Cloudy
7:55 PM 32.0 °F 22.1 °F 8.6 °F 38% 29.90 in 10.0 mi West 13.8 mph 21.9 mph N/A   Partly Cloudy
8:15 PM 32.0 °F 21.6 °F 8.6 °F 38% 29.90 in 10.0 mi WNW 15.0 mph 20.7 mph N/A   Clear
8:35 PM 32.0 °F 24.8 °F 10.4 °F 41% 29.92 in 10.0 mi West 8.1 mph - N/A   Mostly Cloudy
8:55 PM 32.0 °F 24.2 °F 8.6 °F 38% 29.92 in 10.0 mi West 9.2 mph - N/A   Scattered Clouds
9:15 PM 32.0 °F 25.6 °F 10.4 °F 41% 29.93 in 10.0 mi West 6.9 mph - N/A   Scattered Clouds
9:35 PM 30.2 °F 22.6 °F 10.4 °F 44% 29.92 in 10.0 mi WNW 8.1 mph 19.6 mph N/A   Scattered Clouds
9:55 PM 30.2 °F 21.3 °F 12.2 °F 47% 29.92 in 10.0 mi West 10.4 mph 19.6 mph N/A   Scattered Clouds
10:15 PM 30.2 °F 24.3 °F 12.2 °F 47% 29.92 in 10.0 mi WNW 5.8 mph 16.1 mph N/A   Scattered Clouds
10:35 PM 30.2 °F 20.8 °F 12.2 °F 47% 29.92 in 10.0 mi West 11.5 mph 20.7 mph N/A   Scattered Clouds
10:55 PM 30.2 °F 24.3 °F 12.2 °F 47% 29.92 in 10.0 mi West 5.8 mph 18.4 mph N/A   Scattered Clouds
11:15 PM 30.2 °F 21.3 °F 12.2 °F 47% 29.92 in 10.0 mi WNW 10.4 mph - N/A   Scattered Clouds
11:35 PM 30.2 °F 23.4 °F 10.4 °F 44% 29.92 in 10.0 mi West 6.9 mph 18.4 mph N/A   Partly Cloudy
11:55 PM 30.2 °F 19.8 °F 12.2 °F 47% 29.92 in 10.0 mi West 13.8 mph 27.6 mph N/A   Scattered Clouds